Weather History for Westerly, RI

Change the Weather History Date:

Monday, April 15, 2013

  Actual Average (KGON) Record (KGON)
Temperature  
Mean Temperature 42 °F -  
Max Temperature 50 °F 54 °F 78 °F (1960)
Min Temperature 37 °F 36 °F 24 °F (1992)
Degree Days  
Heating Degree Days 22    
Moisture  
Dew Point 33 °F    
Average Humidity 68    
Maximum Humidity 96    
Minimum Humidity 50    
Precipitation  
Precipitation 0.00 in - - ()
Sea Level Pressure  
Sea Level Pressure 30.35 in    
Wind  
Wind Speed 5 mph (SE)    
Max Wind Speed 12 mph    
Max Gust Speed -    
Visibility 10 miles    
Events      
Averages and records for this station are not official NWS values.
T = Trace of Precipitation, MM = Missing Value Source: NWS Daily Summary

Daily Weather History Graph

Daily Weather History Graph

Search for Another Location

Airport:

Trip Planner

Search our weather history database for the weather conditions in past years. The results will help you decide how hot, cold, wet, or windy it might be!

Date:

Astronomy

Apr. 15, 2013 Rise Set
Actual Time 6:07 AM EDT 7:27 PM EDT
Civil Twilight 5:38 AM EDT 7:56 PM EDT
Nautical Twilight 5:04 AM EDT 8:31 PM EDT
Astronomical Twilight 4:27 AM EDT 9:07 PM EDT
Moon 9:28 AM EDT (4/15) No Moon Set
Length of Visible Light 14h 17m
Length of Day
13h 20m
Waxing Crescent, 24% of the Moon is Illuminated
Apr 15
Waxing Crescent
Apr 18
First Quarter
Apr 25
Full
May 2
Last Quarter
May 9
New

Hourly Weather History & Observations

Time (EDT) Temp. Windchill Dew Point Humidity Pressure Visibility Wind Dir Wind Speed Gust Speed Precip Events Conditions
12:53 AM 39.9 °F 35.8 °F 24.1 °F 53% 30.24 in 10.0 mi North 5.8 mph - N/A   Clear
1:53 AM 39.9 °F 36.7 °F 24.1 °F 53% 30.24 in 10.0 mi North 4.6 mph - N/A   Clear
2:53 AM 39.0 °F 35.7 °F 24.1 °F 55% 30.23 in 10.0 mi North 4.6 mph - N/A   Clear
3:53 AM 39.0 °F - 25.0 °F 57% 30.25 in 10.0 mi Calm Calm - N/A   Clear
4:53 AM 39.0 °F 36.8 °F 26.1 °F 60% 30.27 in 10.0 mi North 3.5 mph - N/A   Clear
5:53 AM 37.9 °F - 28.0 °F 68% 30.30 in 10.0 mi Calm Calm - N/A   Clear
6:53 AM 37.0 °F - 28.0 °F 70% 30.35 in 10.0 mi Calm Calm - N/A   Clear
7:53 AM 41.0 °F 38.0 °F 30.0 °F 65% 30.36 in 10.0 mi North 4.6 mph - N/A   Clear
8:53 AM 45.0 °F 42.6 °F 30.0 °F 56% 30.38 in 10.0 mi Variable 4.6 mph - N/A   Clear
9:53 AM 48.0 °F - 30.0 °F 50% 30.39 in 10.0 mi SE 5.8 mph - N/A   Mostly Cloudy
10:53 AM 48.9 °F - 30.9 °F 50% 30.40 in 10.0 mi SE 9.2 mph - N/A   Clear
11:53 AM 46.9 °F - 32.0 °F 56% 30.40 in 10.0 mi SE 9.2 mph - N/A   Clear
12:53 PM 48.9 °F - 34.0 °F 56% 30.39 in 10.0 mi South 10.4 mph - N/A   Clear
1:53 PM 48.0 °F - 35.1 °F 61% 30.38 in 10.0 mi South 9.2 mph - N/A   Clear
2:53 PM 48.0 °F - 36.0 °F 63% 30.37 in 10.0 mi South 11.5 mph - N/A   Clear
3:53 PM 46.9 °F - 37.0 °F 68% 30.35 in 10.0 mi SSE 9.2 mph - N/A   Clear
4:53 PM 46.9 °F - 37.0 °F 68% 30.35 in 10.0 mi South 6.9 mph - N/A   Clear
5:53 PM 46.0 °F 42.5 °F 39.0 °F 76% 30.36 in 10.0 mi SSE 6.9 mph - N/A   Clear
6:53 PM 45.0 °F 42.6 °F 39.9 °F 82% 30.38 in 10.0 mi SE 4.6 mph - N/A   Clear
7:53 PM 44.1 °F - 39.9 °F 85% 30.40 in 10.0 mi Calm Calm - N/A   Clear
8:53 PM 43.0 °F 41.3 °F 39.9 °F 89% 30.41 in 10.0 mi SSE 3.5 mph - N/A   Clear
9:53 PM 43.0 °F 41.3 °F 41.0 °F 93% 30.41 in 10.0 mi SE 3.5 mph - N/A   Clear
10:53 PM 42.1 °F 40.2 °F 41.0 °F 96% 30.41 in 10.0 mi SSE 3.5 mph - N/A   Clear
11:53 PM 42.1 °F - 41.0 °F 96% 30.43 in 10.0 mi Calm Calm - N/A   Clear